Temperature
19 19 19 18 18 18 17 17 17 17 17 17 17 17 17 17 16 16 16 16 16 16 16 16 16 16 15 15 15 15 15 15 16 16 16 15 15 15 15 15 15 15 15
19 19 18 18 18 17 17 17 17 17 17 17 17 17 16 16 16 16 16 15 15 15 15 15 15 15 15 15 15 15 15 15 15 15 15 15 15 14 15 15 15 15 15
18 18 18 18 18 17 17 17 17 17 16 16 16 16 16 16 15 15 15 15 15 15 15 15 15 15 15 14 14 15 15 15 14 15 15 15 15 14 14 14 14 14 14
18 18 18 18 17 17 17 17 16 16 16 16 16 16 16 15 15 15 15 15 15 15 15 14 14 14 14 14 14 14 14 14 14 14 15 15 15 14 14 14 14 14 14
18 18 18 18 17 17 17 16 16 16 16 16 16 16 16 15 15 15 15 15 14 14 14 14 14 14 14 14 14 14 14 14 14 14 14 14 14 14 14 14 14 14 14
18 17 17 17 17 17 17 16 16 16 16 16 16 16 15 15 15 15 15 15 14 14 14 14 14 14 14 14 14 14 14 13 13 14 14 14 13 14 13 14 14 14 14
17 17 17 17 17 16 16 16 16 16 16 15 15 15 15 15 15 15 15 14 14 14 14 14 14 14 14 13 13 13 13 13 13 13 13 13 13 13 13 13 13 13 13
16 16 16 16 16 16 16 15 15 15 15 15 15 15 15 15 15 15 15 14 14 14 13 13 13 13 13 13 13 13 13 13 13 13 13 13 13 13 13 13 13 13 13
16 16 16 15 15 15 15 15 15 15 15 15 15 14 14 14 14 14 14 14 13 13 13 13 13 13 13 13 13 12 12 12 13 13 13 13 13 13 12 12 12 13 13
16 16 15 15 15 15 15 15 14 14 14 14 14 14 14 14 14 14 14 13 13 13 13 13 13 13 13 13 12 12 12 12 12 12 12 12 12 12 12 12 12 12 13
15 15 15 15 15 14 14 14 14 14 14 14 14 14 14 14 14 13 13 13 13 13 13 13 13 13 13 13 12 12 12 12 12 12 12 12 12 12 12 12 12 12 12
15 15 14 14 14 14 14 14 14 13 13 14 13 13 13 13 13 13 13 13 13 12 12 13 12 12 12 12 12 12 12 12 12 12 12 12 12 12 12 12 12 12 12
15 14 14 14 14 14 14 14 13 13 13 14 14 13 13 13 13 13 13 13 12 12 12 12 12 12 12 12 12 12 12 11 11 12 12 12 12 12 11 11 11 12 12
14 14 14 14 13 13 13 13 13 13 13 13 13 13 13 13 13 12 12 12 12 12 12 12 12 12 12 12 12 12 11 11 11 11 11 11 11 11 11 11 11 11 11
14 14 14 13 13 13 13 13 13 13 13 13 13 13 13 12 12 12 12 12 12 12 12 12 12 12 12 11 11 11 11 11 11 11 11 11 11 11 11 11 11 11 11
14 13 13 13 13 13 13 13 13 12 12 12 12 12 12 12 12 12 12 12 11 11 11 11 11 11 11 11 11 11 11 11 11 11 11 11 11 11 11 11 11 11 11
13 13 13 13 13 13 12 12 12 12 12 12 12 12 12 12 11 11 11 11 11 11 11 11 11 11 11 11 11 11 11 11 11 10 10 11 11 11 11 10 10 10 10
13 13 12 12 12 12 12 12 12 12 12 12 12 12 12 11 11 11 11 11 11 11 11 11 11 11 11 11 11 11 10 10 10 10 10 10 10 10 10 10 10 10 10
12 12 12 12 12 12 12 12 12 12 12 12 12 11 11 11 11 11 10 10 10 10 11 10 10 10 10 10 10 10 10 10 10 10 10 10 10 10 10 10 10 10 10
12 12 12 11 12 12 12 12 12 12 12 12 11 11 11 11 11 11 10 10 10 10 10 10 10 10 10 10 10 10 10 10 10 10 10 10 10 10 10 10 10 10 10
12 12 11 11 11 11 11 11 11 11 11 11 11 11 10 10 10 10 10 10 10 10 10 10 10 10 10 9 9 9 9 10 9 9 9 9 9 9 9 9 10 10 9
11 11 11 11 11 11 11 11 11 11 11 11 11 11 10 10 10 10 10 10 10 9 9 9 9 9 9 9 9 9 9 9 9 9 9 9 9 9 9 9 9 9 9
11 11 11 11 11 11 11 11 11 11 11 10 10 10 10 10 10 10 9 9 9 9 9 9 9 9 9 9 9 9 9 9 9 8 8 9 9 9 9 9 9 9 9
10 11 11 11 10 10 10 10 10 10 10 10 10 10 9 9 9 9 9 9 9 9 9 8 8 8 8 8 8 8 8 8 8 8 8 8 8 9 9 9 9 9 9
10 10 10 10 10 10 10 10 10 10 10 9 9 9 9 9 9 9 8 8 8 8 8 8 8 8 8 8 8 8 8 8 8 8 8 8 8 8 8 8 8 8 8
10 10 10 10 10 10 10 10 9 9 9 9 9 9 9 8 8 8 8 8 8 8 8 8 8 8 8 8 8 8 8 8 8 8 8 8 8 8 8 8 8 8 8
Wind_Speed
7 7 6 6 5 5 4 4 5 4 4 5 5 4 4 4 4 4 4 4 4 4 4 4 5 5 5 5 4 5 5 5 7 6 5 3 4 6 5 6 7 7 6
7 6 6 5 5 5 4 4 4 5 5 5 5 5 5 5 4 4 5 4 5 5 5 5 5 4 5 5 5 5 5 5 7 8 6 5 5 5 5 6 6 6 6
6 7 6 6 5 5 4 4 4 5 6 6 6 5 5 5 5 5 5 5 5 5 5 5 5 5 5 4 5 5 5 6 6 7 7 5 5 4 4 5 6 5 6
5 6 6 6 5 4 4 4 5 5 6 6 6 5 5 6 5 5 5 5 5 5 5 5 5 5 5 5 5 5 5 6 6 6 6 6 5 4 4 5 5 4 5
4 5 4 4 4 4 4 5 5 6 6 5 5 5 5 5 5 4 5 5 5 6 5 5 5 4 4 5 5 4 5 6 6 6 6 5 5 4 5 5 5 5 5
5 4 4 4 4 4 4 5 5 5 5 5 5 5 6 5 1 3 6 6 6 6 6 6 5 5 5 6 6 7 7 7 7 7 6 6 6 6 5 6 6 6 5
4 4 4 5 4 4 5 5 5 5 5 5 5 5 5 4 3 4 6 6 6 6 6 5 5 4 4 5 6 9 9 9 9 8 8 8 8 6 6 7 6 7 7
4 4 4 4 4 4 4 4 4 4 4 5 5 5 5 4 3 5 6 6 6 6 6 5 5 5 5 6 7 6 7 6 7 8 7 8 8 6 7 8 8 8 8
4 4 4 4 4 4 5 5 4 4 4 5 5 5 5 4 3 5 6 5 5 6 6 6 6 6 4 6 7 7 7 6 6 7 7 8 7 7 7 7 7 7 7
4 4 4 4 5 5 5 5 4 4 5 5 4 5 5 5 3 4 6 5 5 6 5 5 5 6 5 6 7 7 7 7 7 6 7 9 9 9 10 9 8 7 7
3 4 4 4 5 5 5 5 5 5 5 5 5 5 5 4 4 4 5 5 5 6 5 5 4 4 5 7 8 7 7 8 8 8 7 7 7 6 7 7 7 7 7
3 4 4 4 5 4 4 5 5 6 6 5 5 5 4 4 3 3 4 6 7 6 6 5 3 2 6 7 7 6 8 8 7 6 6 6 6 5 5 6 6 7 7
3 4 4 4 5 5 5 5 5 5 5 5 5 4 4 3 3 5 6 7 8 7 6 5 6 6 7 7 8 9 9 7 7 7 7 6 6 5 4 4 5 6 7
4 4 4 4 4 4 4 4 4 4 5 5 5 5 4 4 3 2 3 4 6 6 6 5 8 9 8 6 6 6 6 6 6 6 6 6 5 4 4 5 5 5 5
4 4 4 4 3 4 4 3 4 3 4 5 5 5 5 4 3 3 4 4 5 4 5 5 5 4 5 5 5 4 5 5 5 6 6 5 5 5 5 5 4 5 5
4 3 4 4 3 3 3 3 2 2 2 3 4 5 4 3 2 3 4 5 6 6 6 5 5 5 5 5 5 4 4 4 4 5 5 5 5 5 5 4 4 5 5
4 3 4 4 3 3 4 4 3 2 3 3 3 3 3 3 3 3 4 5 7 7 6 6 5 5 5 5 5 5 4 4 4 4 5 5 5 5 5 4 4 5 5
3 3 3 3 3 3 4 4 4 4 3 2 2 4 4 4 4 5 4 5 4 4 5 5 5 5 5 5 5 5 4 4 3 4 4 5 4 4 5 4 4 5 4
3 3 3 3 3 3 3 4 3 4 3 3 3 2 4 5 7 6 5 4 5 5 5 5 5 5 5 5 4 4 4 4 4 4 4 5 5 5 5 5 4 4 5
3 2 3 3 3 3 3 3 3 3 3 3 3 3 2 3 3 3 3 4 5 5 5 5 5 5 5 5 5 4 4 4 4 4 4 4 4 4 5 5 5 4 4
3 2 3 4 3 3 3 3 3 3 4 4 3 2 4 5 4 4 4 4 5 5 5 5 5 5 5 4 4 5 5 4 4 4 4 4 4 4 4 4 5 4 4
3 3 3 3 3 3 3 3 3 3 4 5 4 2 3 5 5 4 4 4 4 5 5 5 5 5 4 4 4 4 4 4 4 4 4 4 4 4 4 4 3 3 3
3 3 3 3 3 2 3 3 4 4 4 4 4 4 3 4 4 4 4 4 4 4 4 4 4 4 4 4 4 4 4 4 4 5 5 4 4 4 4 4 3 3 3
3 3 3 3 3 3 3 3 3 4 4 4 4 4 4 4 4 4 4 4 4 3 3 4 4 5 5 4 4 3 3 4 6 5 5 5 4 4 3 3 3 3 3
3 2 3 3 3 3 3 3 3 4 4 4 4 4 4 4 4 4 4 4 4 4 5 5 4 5 6 6 5 4 4 4 5 6 5 4 4 4 3 3 3 3 3
2 2 2 3 3 3 4 4 4 4 4 4 4 4 4 4 4 4 4 4 4 4 5 4 5 6 6 5 4 3 2 3 5 7 6 4 3 3 3 3 4 4 4
Wind_Direction
199 198 207 209 218 225 231 237 244 253 256 260 263 262 261 260 259 258 263 262 259 261 261 256 260 273 274 272 267 265 264 267 271 281 274 273 278 281 280 271 262 259 243
199 196 202 203 209 219 229 237 246 254 257 257 258 257 261 261 263 259 262 261 258 257 259 260 262 261 263 271 273 271 271 268 269 279 282 272 265 267 273 275 272 267 261
196 199 200 202 200 211 222 237 250 255 261 260 256 255 257 258 255 254 255 257 257 258 257 257 259 260 261 266 266 268 270 265 263 270 275 277 272 270 274 272 272 274 267
200 203 200 203 203 210 225 236 246 254 255 258 258 257 257 254 252 254 253 253 257 260 260 259 259 254 255 261 259 261 268 271 269 267 272 273 267 262 263 271 276 268 270
195 198 197 196 201 213 221 232 238 246 253 256 261 261 258 251 251 257 260 256 258 260 260 261 256 251 267 267 273 274 272 271 272 270 272 274 278 275 269 272 275 275 261
188 195 194 194 197 211 223 232 237 244 253 254 252 256 259 263 278 273 266 260 255 256 259 259 253 237 241 244 261 273 275 268 274 278 277 278 276 276 279 274 277 279 276
192 200 195 198 205 219 229 234 238 239 247 251 251 254 262 270 266 257 265 263 258 259 259 261 266 260 247 254 245 243 246 249 255 266 276 279 279 278 276 272 273 275 279
197 208 214 215 216 229 238 239 249 254 252 253 253 252 259 258 243 252 267 256 258 258 255 252 259 269 265 268 261 256 255 253 251 254 265 271 276 279 269 268 271 267 264
209 218 224 231 233 237 242 243 248 257 258 255 253 254 256 253 227 242 261 260 256 257 255 252 254 256 262 269 259 260 265 263 246 239 254 262 272 267 268 268 265 267 270
228 234 235 237 241 245 248 251 251 252 253 257 255 254 256 259 222 231 259 260 260 261 255 250 245 249 249 252 258 263 265 271 273 259 245 243 246 242 237 252 261 263 271
247 247 246 242 242 242 248 250 252 254 253 251 252 253 253 250 221 209 245 262 269 271 270 266 259 220 236 244 257 265 273 281 273 262 255 249 244 246 243 243 253 262 267
253 252 251 252 251 244 242 246 250 249 244 244 248 255 252 244 240 218 221 249 276 274 276 278 285 238 245 245 249 262 269 270 268 264 261 257 255 255 256 257 253 255 262
251 255 254 254 251 248 243 244 247 246 252 257 257 259 263 264 236 202 214 233 251 262 279 287 274 251 252 242 230 238 246 256 262 264 264 264 267 270 269 259 254 252 252
255 261 264 261 259 260 260 258 262 264 268 271 269 269 267 262 265 266 265 255 244 254 273 263 238 235 244 253 249 238 246 253 259 262 268 270 266 259 257 263 263 258 252
266 275 277 276 277 268 271 283 271 279 280 277 281 282 280 272 288 316 290 282 286 288 284 274 275 270 262 257 255 255 252 250 253 262 268 269 264 261 263 263 263 261 259
264 270 275 276 276 273 271 281 340 268 257 248 269 281 293 314 307 289 282 287 289 279 275 274 273 270 268 267 262 254 249 251 256 260 264 263 265 262 262 264 261 260 260
272 272 274 274 272 269 271 269 276 272 231 222 214 227 246 257 262 260 263 271 264 256 264 273 275 274 274 275 273 267 261 256 259 261 263 268 267 265 264 263 261 261 263
273 266 267 270 272 273 275 273 272 278 282 283 213 185 198 219 237 246 253 264 268 262 276 281 282 278 278 277 276 276 276 269 264 270 271 269 265 264 265 264 261 262 262
274 269 270 274 271 275 279 279 277 278 282 287 283 225 201 216 214 224 237 267 281 282 281 279 281 281 281 283 282 278 278 277 274 270 272 274 267 259 258 261 261 249 254
263 265 271 269 262 260 267 274 278 281 285 288 287 296 282 261 260 251 250 270 278 280 282 282 283 283 279 281 281 276 271 271 273 271 275 274 272 267 260 257 259 253 246
269 245 234 258 260 264 274 278 282 288 293 295 297 317 293 281 282 285 283 279 282 283 280 281 278 278 276 276 280 281 277 274 275 279 279 279 277 273 270 266 258 253 250
273 263 261 268 269 268 280 285 288 289 293 294 297 283 239 271 285 283 283 284 282 280 280 282 283 286 288 290 288 288 287 285 285 282 279 275 268 267 267 264 262 250 247
267 268 266 265 269 271 272 284 290 287 292 294 296 295 281 283 288 287 286 291 292 288 290 286 289 298 300 293 288 286 288 292 293 289 278 269 265 262 259 255 250 246 245
266 266 272 271 272 278 282 289 293 293 289 288 293 296 293 290 295 301 297 296 292 288 287 288 287 292 293 294 292 289 300 307 299 284 275 272 268 267 261 254 250 246 240
269 274 282 285 282 285 288 291 297 299 296 293 296 298 298 296 297 301 301 296 288 284 282 280 285 285 286 285 293 307 334 320 298 294 277 265 265 265 260 252 248 245 239
279 284 283 280 279 281 283 287 291 297 295 297 299 298 298 297 296 294 291 287 286 281 280 277 282 286 286 281 287 308 317 291 283 284 276 265 265 265 264 253 247 242 238
Height
1517 1519 1520 1521 1523 1524 1524 1524 1525 1525 1524 1523 1523 1522 1522 1521 1520 1519 1519 1518 1518 1517 1516 1516 1515 1515 1515 1515 1514 1513 1513 1513 1512 1511 1511 1510 1508 1508 1507 1506 1505 1504 1504
1515 1515 1517 1518 1519 1521 1521 1521 1521 1521 1521 1521 1520 1519 1519 1518 1517 1516 1515 1516 1515 1514 1514 1513 1512 1512 1511 1511 1510 1510 1510 1509 1509 1508 1507 1507 1505 1504 1503 1502 1502 1502 1500
1512 1513 1514 1515 1516 1517 1518 1518 1518 1518 1517 1518 1517 1516 1515 1515 1515 1513 1513 1513 1512 1512 1511 1510 1509 1508 1507 1508 1507 1507 1507 1506 1505 1505 1504 1503 1502 1502 1500 1500 1499 1498 1498
1509 1510 1511 1512 1512 1513 1514 1515 1515 1515 1515 1515 1514 1513 1512 1512 1511 1511 1510 1510 1509 1509 1508 1507 1506 1505 1504 1504 1504 1503 1503 1502 1502 1501 1501 1500 1499 1498 1497 1497 1496 1495 1494
1506 1507 1508 1508 1509 1510 1511 1512 1512 1512 1512 1511 1510 1510 1509 1509 1508 1507 1507 1507 1506 1506 1505 1504 1503 1501 1501 1500 1501 1500 1499 1499 1499 1498 1497 1496 1496 1495 1494 1493 1492 1492 1491
1504 1505 1505 1506 1506 1507 1508 1508 1508 1508 1508 1508 1507 1506 1506 1506 1505 1504 1503 1503 1502 1502 1501 1500 1500 1498 1497 1496 1496 1495 1495 1495 1495 1494 1494 1493 1492 1491 1490 1490 1489 1488 1487
1502 1502 1503 1503 1504 1504 1505 1505 1504 1503 1504 1504 1503 1503 1502 1501 1501 1500 1500 1499 1499 1498 1497 1496 1496 1496 1494 1493 1492 1491 1491 1490 1490 1490 1489 1489 1488 1487 1486 1486 1485 1485 1484
1500 1500 1501 1501 1501 1501 1501 1501 1501 1500 1500 1500 1499 1498 1498 1497 1497 1497 1496 1495 1495 1494 1494 1493 1492 1491 1490 1489 1488 1488 1487 1486 1485 1485 1484 1484 1484 1483 1482 1482 1481 1480 1479
1498 1498 1498 1498 1498 1498 1498 1498 1497 1496 1496 1496 1495 1495 1494 1493 1493 1492 1492 1491 1491 1490 1490 1489 1488 1487 1486 1485 1484 1483 1482 1482 1481 1480 1479 1479 1478 1478 1477 1478 1477 1477 1476
1495 1495 1495 1495 1495 1495 1495 1495 1494 1493 1493 1492 1492 1491 1490 1489 1489 1488 1488 1488 1488 1487 1486 1485 1484 1483 1482 1481 1480 1479 1478 1477 1477 1476 1475 1474 1474 1473 1473 1473 1473 1473 1472
1493 1492 1492 1492 1492 1491 1491 1491 1491 1490 1489 1489 1488 1487 1487 1486 1485 1485 1484 1484 1484 1483 1483 1482 1480 1479 1478 1477 1476 1475 1473 1473 1472 1471 1471 1470 1470 1469 1469 1468 1468 1468 1468
1490 1489 1489 1488 1489 1488 1487 1487 1487 1487 1486 1486 1485 1484 1484 1483 1482 1481 1481 1480 1480 1479 1479 1478 1477 1475 1473 1472 1471 1470 1470 1469 1469 1468 1467 1467 1466 1465 1465 1464 1463 1463 1462
1487 1487 1486 1485 1484 1484 1483 1483 1484 1484 1484 1483 1482 1481 1481 1480 1479 1478 1477 1476 1476 1475 1474 1473 1472 1470 1469 1468 1467 1466 1466 1465 1465 1464 1463 1463 1462 1461 1460 1460 1459 1458 1458
1484 1484 1483 1482 1481 1481 1480 1480 1481 1481 1480 1480 1479 1478 1477 1476 1476 1474 1473 1473 1472 1471 1470 1469 1467 1466 1465 1463 1463 1462 1462 1461 1460 1460 1459 1459 1458 1457 1456 1456 1455 1454 1454
1482 1481 1480 1479 1479 1477 1477 1477 1477 1476 1476 1476 1476 1475 1474 1473 1472 1470 1469 1469 1468 1467 1466 1465 1463 1462 1461 1460 1459 1458 1458 1457 1456 1455 1455 1454 1454 1453 1452 1451 1451 1450 1450
1478 1478 1477 1477 1476 1475 1474 1473 1472 1472 1472 1471 1471 1470 1469 1468 1467 1466 1465 1465 1464 1463 1462 1461 1460 1458 1457 1456 1455 1454 1454 1453 1452 1451 1450 1450 1449 1448 1448 1447 1447 1446 1445
1475 1475 1475 1474 1473 1473 1472 1470 1470 1469 1468 1467 1466 1466 1465 1464 1463 1463 1462 1461 1461 1460 1459 1458 1456 1455 1454 1453 1452 1451 1450 1449 1448 1447 1447 1446 1445 1444 1444 1443 1443 1442 1442
1472 1472 1471 1471 1470 1470 1469 1468 1467 1466 1465 1465 1464 1462 1461 1461 1460 1459 1458 1458 1457 1456 1455 1454 1453 1452 1450 1449 1448 1447 1446 1445 1444 1443 1443 1442 1441 1441 1440 1440 1439 1439 1438
1469 1469 1469 1468 1468 1467 1467 1466 1465 1464 1463 1462 1461 1460 1459 1457 1457 1456 1455 1455 1454 1453 1452 1451 1450 1448 1447 1445 1444 1443 1442 1441 1440 1440 1439 1438 1438 1437 1436 1436 1436 1435 1435
1467 1467 1466 1466 1465 1464 1464 1463 1462 1462 1460 1459 1458 1458 1456 1455 1455 1453 1452 1452 1451 1450 1449 1448 1447 1445 1444 1442 1441 1440 1439 1438 1437 1436 1435 1435 1434 1434 1433 1433 1433 1433 1432
1466 1465 1464 1464 1463 1462 1461 1461 1460 1459 1458 1457 1456 1454 1453 1452 1451 1451 1450 1449 1448 1447 1446 1444 1443 1442 1440 1439 1438 1436 1436 1435 1433 1433 1432 1431 1430 1430 1430 1430 1430 1430 1430
1464 1463 1463 1462 1461 1460 1459 1458 1457 1456 1455 1454 1453 1451 1450 1449 1448 1447 1447 1446 1445 1444 1442 1441 1440 1438 1437 1436 1435 1433 1432 1431 1430 1429 1428 1428 1427 1427 1427 1427 1427 1427 1427
1462 1461 1461 1460 1459 1458 1457 1456 1455 1453 1452 1451 1450 1449 1447 1446 1445 1444 1444 1443 1441 1440 1439 1437 1436 1435 1434 1433 1432 1430 1429 1428 1427 1426 1425 1425 1425 1425 1425 1425 1424 1425 1425
1461 1460 1459 1458 1457 1456 1455 1453 1452 1451 1450 1449 1447 1446 1445 1443 1442 1441 1440 1439 1438 1437 1435 1434 1433 1432 1431 1429 1428 1427 1426 1425 1424 1423 1422 1422 1422 1422 1422 1422 1422 1423 1423
1459 1458 1457 1456 1455 1454 1453 1451 1450 1449 1448 1446 1445 1444 1442 1441 1439 1438 1437 1436 1435 1434 1432 1431 1430 1429 1428 1426 1425 1424 1423 1421 1421 1420 1420 1420 1419 1419 1419 1420 1420 1421 1421
1457 1456 1455 1454 1453 1452 1451 1450 1448 1447 1446 1444 1443 1441 1440 1438 1437 1435 1434 1433 1432 1431 1429 1428 1426 1425 1424 1423 1422 1421 1420 1419 1418 1418 1417 1417 1417 1417 1417 1418 1418 1418 1419